Stafford, VA

9:31 AM EDT on May 29, 2017 (GMT -0400)
Stafford

Weather History for KRMN - June, 2013

Change the Weather History Date:

Saturday, June 1, 2013

  Actual Average (KNYG) Record (KNYG)
Temperature  
Mean Temperature 80 °F -  
Max Temperature 92 °F 74 °F 91 °F (2002)
Min Temperature 68 °F 57 °F 53 °F (2001)
Cooling Degree Days 15    
Growing Degree Days 30 (Base 50)    
Moisture  
Dew Point 66 °F    
Average Humidity 61    
Maximum Humidity 86    
Minimum Humidity 40    
Precipitation  
Precipitation 0.00 in - - ()
Sea Level Pressure  
Sea Level Pressure 30.05 in    
Wind  
Wind Speed 4 mph (SSW)    
Max Wind Speed 13 mph    
Max Gust Speed 20 mph    
Visibility 10 miles    
Events      
Averages and records for this station are not official NWS values.
T = Trace of Precipitation, MM = Missing Value Source: NWS Daily Summary

Daily Weather History Graph

Daily Weather History Graph

Search for Another Location

Airport or City:

Trip Planner

Search our weather history database for the weather conditions in past years. The results will help you decide how hot, cold, wet, or windy it might be!

Date:

Astronomy

Jun. 01, 2013 Rise Set
Actual Time 5:47 AM EDT 8:28 PM EDT
Civil Twilight 5:16 AM EDT 8:59 PM EDT
Nautical Twilight 4:37 AM EDT 9:38 PM EDT
Astronomical Twilight 3:54 AM EDT 10:21 PM EDT
Moon 1:37 AM EDT (6/1) 1:59 PM EDT (6/1)
Length of Visible Light 15h 42m
Length of Day
14h 40m
Last Quarter, 41% of the Moon is Illuminated
Jun 1
Last Quarter
Jun 8
New
Jun 16
First Quarter
Jun 23
Full
Jun 30
Last Quarter

Hourly Weather History & Observations

Time (EDT) Temp. Heat Index Dew Point Humidity Pressure Visibility Wind Dir Wind Speed Gust Speed Precip Events Conditions
12:15 AM 75.2 °F - 64.6 °F 69% 30.10 in 10.0 mi South 3.5 mph - N/A   Clear
12:35 AM 74.8 °F - 64.6 °F 70% 30.10 in 10.0 mi Calm Calm - N/A   Clear
12:55 AM 73.6 °F - 64.4 °F 73% 30.10 in 10.0 mi Calm Calm - N/A   Clear
1:15 AM 73.4 °F - 65.1 °F 75% 30.09 in 10.0 mi Calm Calm - N/A   Clear
1:35 AM 73.2 °F - 64.8 °F 75% 30.09 in 10.0 mi Calm Calm - N/A   Clear
1:55 AM 73.0 °F - 64.6 °F 75% 30.08 in 10.0 mi Calm Calm - N/A   Clear
2:15 AM 71.6 °F - 64.0 °F 77% 30.09 in 10.0 mi Calm Calm - N/A   Clear
2:35 AM 70.5 °F - 64.4 °F 81% 30.08 in 10.0 mi Calm Calm - N/A   Clear
2:55 AM 69.8 °F - 64.4 °F 83% 30.09 in 10.0 mi Calm Calm - N/A   Clear
3:15 AM 69.3 °F - 64.0 °F 83% 30.09 in 10.0 mi Calm Calm - N/A   Clear
3:35 AM 69.1 °F - 64.4 °F 85% 30.08 in 10.0 mi Calm Calm - N/A   Clear
3:55 AM 68.9 °F - 64.4 °F 86% 30.08 in 10.0 mi Calm Calm - N/A   Clear
4:15 AM 68.5 °F - 64.0 °F 85% 30.09 in 10.0 mi Calm Calm - N/A   Clear
4:35 AM 68.9 °F - 64.2 °F 85% 30.09 in 10.0 mi South 3.5 mph - N/A   Clear
4:55 AM 69.1 °F - 64.0 °F 84% 30.09 in 10.0 mi Calm Calm - N/A   Clear
5:15 AM 69.1 °F - 64.0 °F 84% 30.08 in 10.0 mi South 3.5 mph - N/A   Clear
5:35 AM 68.9 °F - 64.0 °F 84% 30.09 in 10.0 mi South 3.5 mph - N/A   Clear
5:55 AM 68.7 °F - 64.0 °F 85% 30.09 in 10.0 mi South 3.5 mph - N/A   Clear
6:15 AM 69.6 °F - 64.6 °F 84% 30.09 in 10.0 mi South 3.5 mph - N/A   Clear
6:35 AM 70.0 °F - 64.8 °F 83% 30.09 in 10.0 mi SSW 3.5 mph - N/A   Clear
6:55 AM 71.1 °F - 65.5 °F 82% 30.09 in 10.0 mi SSW 4.6 mph - N/A   Clear
7:15 AM 72.1 °F - 66.2 °F 82% 30.10 in 10.0 mi SSW 4.6 mph - N/A   Clear
7:35 AM 73.4 °F - 66.7 °F 80% 30.10 in 10.0 mi SSW 4.6 mph - N/A   Clear
7:55 AM 74.8 °F - 67.1 °F 77% 30.10 in 10.0 mi SSW 5.8 mph - N/A   Clear
8:15 AM 75.9 °F - 67.3 °F 74% 30.10 in 10.0 mi SSW 6.9 mph - N/A   Clear
8:35 AM 77.2 °F - 67.3 °F 71% 30.10 in 10.0 mi SSW 5.8 mph - N/A   Clear
8:55 AM 78.6 °F - 67.6 °F 69% 30.10 in 10.0 mi SSW 6.9 mph - N/A   Clear
9:15 AM 80.6 °F 83.4 °F 68.2 °F 66% 30.09 in 10.0 mi SW 4.6 mph - N/A   Clear
9:35 AM 81.1 °F 83.9 °F 68.0 °F 64% 30.09 in 10.0 mi SW 8.1 mph - N/A   Clear
9:55 AM 82.2 °F 85.1 °F 68.2 °F 62% 30.09 in 10.0 mi WSW 6.9 mph - N/A   Clear
10:15 AM 82.4 °F 85.4 °F 68.2 °F 62% 30.08 in 10.0 mi SSW 6.9 mph - N/A   Clear
10:35 AM 84.0 °F 87.3 °F 68.4 °F 59% 30.08 in 10.0 mi SW 5.8 mph - N/A   Clear
10:55 AM 85.1 °F 87.9 °F 67.5 °F 55% 30.09 in 10.0 mi SW 6.9 mph - N/A   Clear
11:15 AM 86.2 °F 89.1 °F 67.3 °F 53% 30.08 in 10.0 mi West 10.4 mph - N/A   Clear
11:35 AM 86.4 °F 89.4 °F 67.6 °F 53% 30.08 in 10.0 mi West 8.1 mph - N/A   Clear
11:55 AM 86.5 °F 89.3 °F 66.9 °F 52% 30.07 in 10.0 mi SW 8.1 mph - N/A   Clear
12:15 PM 87.8 °F 90.7 °F 67.1 °F 50% 30.07 in 10.0 mi SW 6.9 mph - N/A   Clear
12:35 PM 89.2 °F 92.8 °F 67.6 °F 49% 30.06 in 10.0 mi SW 8.1 mph - N/A   Clear
12:55 PM 89.8 °F 93.3 °F 67.6 °F 48% 30.06 in 10.0 mi SSW 5.8 mph - N/A   Clear
1:15 PM 91.0 °F 95.2 °F 68.2 °F 47% 30.05 in 10.0 mi SSW 3.5 mph - N/A   Clear
1:35 PM 91.0 °F 94.3 °F 67.3 °F 45% 30.04 in 10.0 mi SSW 6.9 mph - N/A   Clear
1:55 PM 91.4 °F 96.3 °F 69.3 °F 48% 30.03 in 10.0 mi South 8.1 mph - N/A   Clear
2:15 PM 91.8 °F 96.0 °F 68.0 °F 46% 30.03 in 10.0 mi SSW 11.5 mph 16.1 mph N/A   Clear
2:35 PM 92.5 °F 95.9 °F 67.3 °F 43% 30.03 in 10.0 mi South 11.5 mph 16.1 mph N/A   Clear
2:55 PM 89.2 °F 92.4 °F 67.5 °F 48% 30.02 in 10.0 mi SW 9.2 mph - N/A   Mostly Cloudy
3:15 PM 92.1 °F 95.7 °F 67.3 °F 44% 30.02 in 10.0 mi SSW 6.9 mph 16.1 mph N/A   Scattered Clouds
3:35 PM 92.5 °F 94.6 °F 65.1 °F 40% 30.02 in 10.0 mi SSW 11.5 mph 16.1 mph N/A   Scattered Clouds
3:55 PM 92.7 °F 95.3 °F 66.0 °F 41% 30.01 in 10.0 mi South 10.4 mph 17.3 mph N/A   Clear
4:15 PM 92.8 °F 95.2 °F 65.3 °F 40% 30.00 in 10.0 mi SSW 9.2 mph - N/A   Scattered Clouds
4:35 PM 91.9 °F 94.1 °F 64.9 °F 41% 30.00 in 10.0 mi South 10.4 mph 18.4 mph N/A   Scattered Clouds
4:55 PM 91.4 °F 93.6 °F 65.1 °F 42% 30.00 in 10.0 mi SW 12.7 mph 17.3 mph N/A   Scattered Clouds
5:15 PM 91.0 °F 93.0 °F 65.3 °F 42% 30.00 in 10.0 mi South 11.5 mph 19.6 mph N/A   Clear
5:35 PM 91.0 °F 93.8 °F 66.2 °F 44% 29.99 in 10.0 mi SW 10.4 mph - N/A   Clear
5:55 PM 91.0 °F 93.8 °F 66.4 °F 44% 29.99 in 10.0 mi SSW 8.1 mph - N/A   Clear
6:15 PM 90.0 °F 92.0 °F 65.5 °F 44% 29.98 in 10.0 mi SSW 12.7 mph 19.6 mph N/A   Clear
6:35 PM 89.2 °F 91.3 °F 65.5 °F 45% 29.98 in 10.0 mi SW 5.8 mph 18.4 mph N/A   Clear
6:55 PM 89.1 °F 91.3 °F 65.7 °F 46% 29.99 in 10.0 mi SSW 9.2 mph - N/A   Clear
7:15 PM 88.0 °F 90.0 °F 65.5 °F 47% 29.98 in 10.0 mi SSW 9.2 mph - N/A   Clear
7:35 PM 87.1 °F 88.9 °F 65.1 °F 48% 29.99 in 10.0 mi South 6.9 mph - N/A   Clear
7:55 PM 86.2 °F 87.6 °F 64.4 °F 48% 29.98 in 10.0 mi South 6.9 mph - N/A   Clear
8:15 PM 85.3 °F 86.4 °F 63.7 °F 48% 29.98 in 10.0 mi South 6.9 mph - N/A   Clear
8:35 PM 84.6 °F 85.6 °F 63.7 °F 49% 29.99 in 10.0 mi South 5.8 mph - N/A   Clear
8:55 PM 84.0 °F 85.6 °F 64.4 °F 52% 29.99 in 10.0 mi SSW 4.6 mph - N/A   Clear
9:15 PM 82.8 °F 84.3 °F 64.6 °F 54% 29.99 in 10.0 mi SSW 4.6 mph - N/A   Clear
9:35 PM 82.4 °F 84.2 °F 65.3 °F 56% 30.00 in 10.0 mi South 3.5 mph - N/A   Clear
9:55 PM 82.4 °F 84.1 °F 64.8 °F 55% 30.00 in 10.0 mi South 6.9 mph - N/A   Clear
10:15 PM 82.2 °F 83.8 °F 64.8 °F 55% 29.99 in 10.0 mi SSW 5.8 mph - N/A   Clear
10:35 PM 81.5 °F 82.9 °F 64.0 °F 55% 29.99 in 10.0 mi South 4.6 mph - N/A   Clear
10:55 PM 80.8 °F 82.2 °F 63.9 °F 56% 30.00 in 10.0 mi South 4.6 mph - N/A   Clear
11:15 PM 80.6 °F 82.2 °F 63.9 °F 57% 30.00 in 10.0 mi SSW 8.1 mph - N/A   Clear
11:35 PM 80.6 °F 82.3 °F 64.4 °F 58% 29.99 in 10.0 mi South 5.8 mph - N/A   Clear
11:55 PM 79.3 °F - 63.7 °F 59% 29.99 in 10.0 mi South 5.8 mph - N/A   Clear